FW2442 Weather Reports


Display with metric or nautical units.
time (UTC)temp
F
wind
direction
speed
MPH
gust
MPH
rain 1hr
in
rain 24hr
in
rain mn
in
humidity
%
barometer
mb
20260906192521 62 323 17.0 29.0 0.00 0.02 0.02 58 1023.3
20260906191538 61 309 18.0 30.0 0.00 0.02 0.02 58 1023.2
20260906190557 61 300 19.0 29.0 0.00 0.02 0.02 59 1023.0
20260906185519 61 293 11.0 19.0 0.00 0.02 0.02 59 1023.1
20260906184540 62 308 12.0 23.0 0.00 0.02 0.02 57 1022.9
20260906183541 62 310 12.0 22.0 0.00 0.02 0.02 56 1022.8
20260906182518 63 312 16.0 32.0 0.00 0.02 0.02 55 1022.7
20260906181519 63 310 16.0 25.0 0.00 0.02 0.02 55 1022.5
20260906180521 63 290 13.0 24.0 0.00 0.02 0.02 55 1022.3
20260906175519 63 290 14.0 23.0 0.00 0.02 0.02 54 1022.3
20260906174517 64 286 16.0 26.0 0.00 0.02 0.02 53 1022.2
20260906173540 64 277 16.0 30.0 0.00 0.02 0.02 52 1021.9
20260906172522 65 295 17.0 23.0 0.00 0.02 0.02 51 1021.9
20260906171520 65 303 22.0 36.0 0.00 0.02 0.02 50 1021.6
20260906170518 66 293 20.0 28.0 0.00 0.06 0.02 50 1021.4
20260906165520 66 302 26.0 45.0 0.00 0.23 0.02 49 1021.1
20260906164522 67 304 31.0 56.0 0.00 0.23 0.02 48 1020.8
20260906163519 67 320 23.0 56.0 0.00 0.23 0.02 49 1020.7
20260906162520 68 306 28.0 50.0 0.00 0.23 0.02 48 1020.6
20260906161518 68 302 34.0 54.0 0.00 0.23 0.02 47 1020.4
20260906160522 69 295 31.0 44.0 0.00 0.23 0.02 46 1020.1
20260906155518 69 296 37.0 70.0 0.00 0.23 0.02 45 1020.0
20260906154521 70 301 33.0 52.0 0.00 0.23 0.02 47 1020.0
20260906153521 70 313 22.0 39.0 0.00 0.23 0.02 49 1019.9
20260906152521 69 304 30.0 48.0 0.00 0.23 0.02 48 1019.8
20260906151520 69 312 29.0 56.0 0.00 0.23 0.02 47 1019.8
20260906150522 69 301 34.0 53.0 0.00 0.23 0.02 47 1019.7
20260906145519 70 300 37.0 52.0 0.00 0.23 0.02 46 1019.6
20260906144523 69 310 29.0 54.0 0.00 0.23 0.02 47 1019.4
20260906143519 71 304 29.0 46.0 0.00 0.23 0.02 46 1019.3
20260906142521 71 301 40.0 66.0 0.00 0.23 0.02 45 1019.1
20260906141520 71 314 40.0 61.0 0.00 0.23 0.02 45 1019.0
20260906140520 71 326 35.0 50.0 0.00 0.23 0.02 46 1018.9
20260906135521 70 307 36.0 58.0 0.00 0.23 0.02 48 1018.8
20260906134522 71 306 38.0 63.0 0.00 0.23 0.02 46 1018.7
20260906133519 72 294 43.0 60.0 0.00 0.23 0.02 47 1018.7
20260906132537 72 314 32.0 42.0 0.00 0.23 0.02 47 1018.7
20260906131520 71 295 46.0 66.0 0.00 0.23 0.02 44 1018.6
20260906130518 71 307 39.0 66.0 0.00 0.23 0.02 45 1018.4
20260906125536 71 287 40.0 68.0 0.00 0.23 0.02 49 1018.5
20260906124517 71 304 40.0 58.0 0.00 0.23 0.02 49 1018.4
20260906123519 71 311 29.0 58.0 0.00 0.23 0.02 51 1018.3
20260906122520 69 298 27.0 38.0 0.00 0.23 0.02 58 1018.4
20260906121519 69 275 28.0 46.0 0.00 0.23 0.02 59 1018.5
20260906120520 67 269 24.0 31.0 0.00 0.23 0.02 63 1018.7
20260906115520 66 272 18.0 23.0 0.00 0.23 0.02 67 1018.9
20260906114521 65 276 24.0 30.0 0.01 0.23 0.02 66 1019.0
20260906113521 65 278 17.0 31.0 0.01 0.23 0.02 71 1018.9
20260906112522 62 263 13.0 19.0 0.01 0.23 0.02 76 1019.1
20260906111521 61 262 15.0 19.0 0.01 0.23 0.02 77 1019.4
20260906110537 62 266 29.0 36.0 0.01 0.23 0.02 76 1019.6
20260906105520 62 276 37.0 48.0 0.01 0.23 0.02 69 1019.6
20260906104516 66 283 60.0 94.0 0.00 0.22 0.01 57 1019.3
20260906103521 67 299 42.0 70.0 0.00 0.22 0.01 57 1018.9
20260906102519 68 306 31.0 41.0 0.00 0.22 0.01 57 1018.8
20260906101520 68 302 38.0 79.0 0.00 0.22 0.01 58 1018.8
20260906100541 68 299 37.0 50.0 0.01 0.22 0.01 59 1018.7
20260906095521 68 319 34.0 46.0 0.01 0.22 0.01 61 1018.7
20260906094523 66 330 24.0 45.0 0.01 0.22 0.01 65 1018.8
20260906093520 64 307 12.0 24.0 0.01 0.22 0.01 74 1018.7
20260906092521 64 284 16.0 28.0 0.01 0.22 0.01 75 1018.9
20260906091519 65 311 28.0 42.0 0.01 0.22 0.01 66 1019.0
20260906090521 66 309 23.0 50.0 0.00 0.21 0.00 63 1018.8
20260906085541 66 295 32.0 47.0 0.00 0.21 0.00 65 1018.7
20260906084521 66 294 34.0 48.0 0.00 0.21 0.00 65 1018.8
20260906083540 67 289 37.0 60.0 0.00 0.21 0.00 63 1018.8
20260906082518 68 299 24.0 45.0 0.00 0.21 0.00 64 1018.7
20260906081517 68 287 31.0 52.0 0.00 0.21 0.00 69 1018.6
20260906080521 67 300 27.0 46.0 0.00 0.21 0.00 71 1018.7
20260906075519 66 296 20.0 36.0 0.00 0.21 0.00 73 1018.8
20260906074522 65 296 19.0 27.0 0.00 0.21 0.00 75 1018.7
20260906073521 64 285 26.0 34.0 0.00 0.21 0.00 75 1018.7
20260906072521 64 291 20.0 37.0 0.00 0.21 0.00 74 1018.7
20260906071541 63 252 7.0 13.0 0.00 0.21 0.00 83 1018.8
20260906070521 62 239 11.0 17.0 0.00 0.21 0.00 84 1018.8
20260906065521 61 212 14.0 22.0 0.00 0.21 0.00 85 1018.9
20260906064519 61 196 14.0 21.0 0.00 0.21 0.00 87 1018.8
20260906063540 61 239 11.0 19.0 0.00 0.21 0.00 86 1018.8
20260906062520 61 207 18.0 26.0 0.00 0.21 0.00 85 1018.6
20260906061520 61 225 10.0 13.0 0.00 0.21 0.00 84 1018.1
20260906060521 61 285 7.0 11.0 0.00 0.21 0.00 83 1017.9
20260906055521 60 356 9.0 16.0 0.00 0.21 0.00 85 1017.9
20260906054522 60 340 11.0 17.0 0.00 0.21 0.00 86 1018.0
20260906053520 60 334 13.0 27.0 0.00 0.21 0.00 86 1018.3
20260906052518 60 313 19.0 34.0 0.00 0.21 0.00 85 1018.5
20260906051518 60 300 14.0 26.0 0.00 0.21 0.00 86 1018.2
20260906050521 60 282 17.0 26.0 0.00 0.21 0.00 89 1018.2
20260906045539 59 276 10.0 14.0 0.00 0.21 0.00 91 1017.9
20260906044537 58 292 11.0 21.0 0.00 0.21 0.00 92 1018.0
20260906043521 58 299 16.0 23.0 0.00 0.21 0.00 91 1018.1
20260906042523 59 320 14.0 21.0 0.00 0.21 0.00 90 1018.0
20260906041521 59 299 11.0 21.0 0.00 0.21 0.00 90 1017.6
20260906040521 58 239 10.0 17.0 0.00 0.21 0.00 91 1017.1
20260906035518 58 240 10.0 13.0 0.00 0.21 0.00 91 1017.0
20260906034521 58 177 6.0 9.0 0.00 0.21 0.00 91 1016.8
20260906033539 58 173 8.0 12.0 0.00 0.21 0.00 90 1016.8
20260906032521 58 187 5.0 8.0 0.00 0.21 0.00 90 1016.6
20260906031519 58 205 3.0 5.0 0.00 0.21 0.00 90 1016.6
20260906030522 58 256 7.0 12.0 0.00 0.21 0.00 90 1016.6
20260906025520 59 301 4.0 7.0 0.00 0.21 0.00 90 1016.5
20260906024525 59 294 5.0 8.0 0.00 0.21 0.00 90 1016.5
20260906023519 59 288 4.0 7.0 0.00 0.21 0.00 91 1016.4
20260906022517 59 278 7.0 14.0 0.00 0.21 0.00 91 1016.4
20260906021519 59 278 8.0 11.0 0.00 0.21 0.00 91 1016.5
20260906020521 59 227 8.0 17.0 0.00 0.21 0.00 91 1016.5
20260906015521 59 268 8.0 13.0 0.00 0.21 0.00 91 1016.5
20260906014522 59 273 14.0 20.0 0.00 0.21 0.00 92 1016.6
20260906013519 59 272 13.0 17.0 0.00 0.21 0.00 93 1016.6
20260906012521 59 276 10.0 14.0 0.00 0.21 0.00 92 1016.6
20260906011520 59 270 8.0 13.0 0.00 0.21 0.00 92 1016.5
20260906010519 59 274 8.0 11.0 0.00 0.21 0.00 92 1016.6
20260906005519 60 264 7.0 11.0 0.00 0.21 0.00 92 1016.4
20260906004521 60 237 9.0 15.0 0.00 0.21 0.00 91 1016.6
20260906003520 60 242 8.0 11.0 0.00 0.21 0.00 91 1016.7
20260906002520 60 266 12.0 20.0 0.00 0.21 0.00 92 1016.8
20260906001540 60 294 10.0 14.0 0.00 0.21 0.00 92 1016.8
20260906000523 60 274 6.0 9.0 0.00 0.21 0.00 91 1016.8
20260905235521 61 282 5.0 9.0 0.00 0.21 0.00 91 1016.9
20260905234519 61 261 4.0 8.0 0.00 0.21 0.00 90 1016.8
20260905233519 61 195 6.0 10.0 0.00 0.21 0.00 90 1016.7
20260905232520 61 235 7.0 11.0 0.00 0.21 0.00 90 1017.0
20260905231519 61 213 7.0 14.0 0.00 0.21 0.00 89 1017.1
20260905230521 62 229 7.0 13.0 0.00 0.21 0.00 89 1017.0
20260905225519 62 257 7.0 11.0 0.00 0.21 0.00 89 1017.1
20260905224539 62 254 14.0 20.0 0.00 0.21 0.00 89 1017.1
20260905223521 62 268 14.0 19.0 0.00 0.21 0.00 90 1017.1
20260905222521 61 265 14.0 26.0 0.00 0.21 0.00 90 1017.1
20260905221519 61 256 19.0 26.0 0.00 0.21 0.00 90 1017.0
20260905220517 61 294 19.0 28.0 0.00 0.21 0.00 91 1017.0
20260905215540 61 279 12.0 17.0 0.00 0.21 0.00 92 1016.9
20260905214521 61 285 12.0 19.0 0.00 0.21 0.00 92 1016.8
20260905213519 61 276 14.0 18.0 0.00 0.21 0.00 91 1016.7
20260905212601 61 273 16.0 19.0 0.00 0.21 0.00 92 1016.6
20260905211559 61 276 16.0 21.0 0.00 0.21 0.00 92 1016.4
20260905210601 61 269 16.0 21.0 0.00 0.21 0.00 93 1016.5
20260905205519 61 293 14.0 19.0 0.00 0.21 0.21 93 1016.3
20260905204521 61 279 14.0 18.0 0.00 0.21 0.21 93 1016.3
20260905203521 61 283 13.0 16.0 0.00 0.21 0.21 93 1016.2
20260905202522 61 274 9.0 11.0 0.00 0.21 0.21 93 1016.1
20260905201520 61 279 9.0 11.0 0.00 0.21 0.21 93 1015.9
20260905200522 61 270 11.0 15.0 0.00 0.21 0.21 92 1015.9
20260905195519 62 276 6.0 9.0 0.00 0.21 0.21 92 1015.9
20260905194521 62 277 12.0 17.0 0.00 0.21 0.21 92 1015.9
20260905193519 61 305 9.0 13.0 0.00 0.21 0.21 92 1015.8